This is the latest recevied weather packets stored in our database for station/object EA1JAV-10. If no packets are shown the sender has not sent any weather packets the latest 10 day(s).
| Time | Temp. | Humidity | Pressure | Rain* | Wind** | Luminosity | Snow |
|---|---|---|---|---|---|---|---|
| 1777451149 | 18.33° C | 38% | 993.2 hPa | - | - | - | - |
| 1777449349 | 18.33° C | 38% | 993.1 hPa | - | - | - | - |
| 1777447549 | 18.89° C | 37% | 993.2 hPa | - | - | - | - |
| 1777445749 | 18.89° C | 38% | 993.1 hPa | - | - | - | - |
| 1777443949 | 18.89° C | 37% | 992.9 hPa | - | - | - | - |
| 1777442149 | 19.44° C | 37% | 992.7 hPa | - | - | - | - |
| 1777440349 | 21.67° C | 34% | 992.4 hPa | - | - | - | - |
| 1777438549 | 19.44° C | 36% | 992.5 hPa | - | - | - | - |
| 1777436749 | 19.44° C | 36% | 992.7 hPa | - | - | - | - |
| 1777434949 | 20° C | 36% | 993 hPa | - | - | - | - |
| 1777433149 | 20° C | 36% | 993.4 hPa | - | - | - | - |
| 1777431349 | 20° C | 35% | 993.5 hPa | - | - | - | - |
| 1777429548 | 21.67° C | 34% | 993.7 hPa | - | - | - | - |
| 1777427748 | 20.56° C | 36% | 994 hPa | - | - | - | - |
| 1777425948 | 20.56° C | 36% | 994.2 hPa | - | - | - | - |
| 1777424148 | 21.11° C | 36% | 994.3 hPa | - | - | - | - |
| 1777422348 | 21.11° C | 36% | 994.6 hPa | - | - | - | - |
| 1777420547 | 21.11° C | 36% | 994.6 hPa | - | - | - | - |
| 1777418747 | 22.22° C | 35% | 994.7 hPa | - | - | - | - |
| 1777416947 | 22.22° C | 35% | 994.9 hPa | - | - | - | - |
| 1777415147 | 22.78° C | 35% | 994.8 hPa | - | - | - | - |
| 1777413346 | 23.33° C | 35% | 994.9 hPa | - | - | - | - |
| 1777411546 | 23.33° C | 35% | 995.1 hPa | - | - | - | - |
| 1777409746 | 23.89° C | 35% | 995.1 hPa | - | - | - | - |
| 1777407946 | 26.11° C | 34% | 994.7 hPa | - | - | - | - |
* Rain since midnight (hover to see other rain measurements)
** Current wind speed in m/s (hover to see current wind gust speed)